Regional Weather Roundup
Issued by NWS Nashville, TN

Home | Current Version | Previous Version | Text Only | Print | Product List | Glossary On
Versions: 1 2 3 4 5 6 7 8 9 10 11 12 13 14 15 16 17 18 19 20 21 22 23 24 25 26 27 28 29 30 31 32 33 34 35 36 37 38 39 40 41 42 43 44 45 46 47 48 49 50
000
ASUS44 KOHX 250910
RWROHX
MIDDLE TENNESSEE HOURLY WEATHER ROUNDUP
NATIONAL WEATHER SERVICE NASHVILLE TN
300 AM CST SAT FEB 25 2017

NOTE: "FAIR" INDICATES FEW OR NO CLOUDS BELOW 12,000 FEET WITH
NO SIGNIFICANT WEATHER AND/OR OBSTRUCTIONS TO VISIBILITY.

* THESE REPORTS ARE NOT UNDER NWS QUALITY CONTROL AND MAY NOT
  REPORT WEATHER SUCH AS PRECIPITATION AND FOG.


TNZ005>011-023>034-057-059-062>066-078-080-251000
...NORTHERN MIDDLE TENNESSEE...

CITY           SKY/WX    TMP DP  RH WIND       PRES   REMARKS
CLARKSVILLE    CLEAR     46  29  51 W10       29.82R
CROSSVILLE     CLOUDY    53  49  86 W14       29.74R
GALLATIN       MOCLDY    54  32  43 NW10      29.81R
DICKSON        CLEAR     46  29  52 W13       29.82R
LIVINGSTON     CLOUDY    53  39  59 NW9       29.75R
NASHVILLE      PTCLDY    52  25  35 NW14G22   29.81R
PORTLAND       MOCLDY    48  37  66 NW8G14    29.79R
SMYRNA         PTCLDY    52  28  39 NW16G23   29.81R
SPARTA         CLOUDY    54  48  82 NW5       29.75R
SPRINGFIELD    CLOUDY    46  30  53 W12       29.79R
WEST NASHVILLE PTCLDY    48  25  40 W13       29.81S
$$
TNZ056-058-060-061-075>077-079-093>097-251000
...SOUTHERN MIDDLE TENNESSEE...

CITY           SKY/WX    TMP DP  RH WIND       PRES   REMARKS
COLUMBIA       CLEAR     50  30  46 NW12      29.81S
FAYETTEVILLE   CLOUDY    55  32  41 NW12G20   29.80R
MCMINNVILLE    CLOUDY    55  46  71 W8        29.77R
MURFREESBORO   PTCLDY    55  35  46 NW10      29.78R
SHELBYVILLE    MOCLDY    55  39  54 W12       29.80R
TULLAHOMA      CLOUDY    54  43  66 W9        29.80R
WINCHESTER     CLOUDY    55  43  62 NW5       29.79R
$$


...KEY TO REMARKS...
VSB - VISIBILITY IN MILES
WCI - WIND CHILL INDEX
HX  - HEAT INDEX




USA.gov is the U.S. government's official web portal to all federal, state and local government web resources and services.